STARLINK-2279 (47991 NORAD) Tracking and Keplerian Element Data

This shows tracking and keplerian element data for the satellite.

Feedback or suggestion? Click here.




ElementValue
Catalog47991
NameSTARLINK-2279
Epoch Orbit198
Epoch Day173.91668981
Epoch Year2021
RAAN114.3096
Inclination53.0457
Eccentricity0.0002061
Argument of Perigee27.8536
Mean Anonmoly116.407
Mean Motion15.73205026
Decay Rate0.0001281
L11 47991U 21024Q 21173.91668981 .00012810 00000-0 95521-4 0 9999
L22 47991 53.0457 114.3096 0002061 27.8536 116.4070 15.73205026 1988

Live tracking and technical data element details for STARLINK-2279 (NORAD 47991). STARLINK-2279 can be tracked NOW for your location showing map with azimuth and elevation plus other details from your city location.

Track the satellite on the map from your city or location and see movement details for azimuth, elevation, latitude, longitude, range, height, and movement on the map or in text.







IsCatalogInMostPopularTable: catalog: 47991, numindb: 43
Update: records affected: 1



GetName: 47991 STARLINK-2279

Hit Count: updated at: Thu, 24 Jun 2021 04:19:09 GMT